#timestamp,LO_Frequency,Hit,StdDev 
1658552415.4,286046999.7,N
1658552435.3,286047002.1,N
1658552455.1,286047002.7,N
1658552456.0,286047002.7,N
1658552475.8,286046999.9,N
1658552495.7,286047000.2,N
1658552515.5,286047000.5,N
1658552535.3,286047000.6,N
1658552555.2,286047000.8,N
1658552575.0,286047000.9,N
1658552575.9,286047000.9,N
1658552595.8,286047000.1,N
1658552615.6,286047000.8,N
1658552635.4,286047002.4,N
1658552655.3,286047000.1,N
1658552675.1,286047000.7,N
1658552695.9,286047000.7,N
1658552715.7,286046998.7,N
1658552735.5,286047000.6,N
1658552755.4,286046998.1,N
1658552775.2,286046998.4,N
1658552795.0,286046999.1,N
1658552795.9,286046999.1,N
1658552815.8,286046998.9,N
1658552835.6,286047000.9,N
1658552855.5,286047001.0,N
1658552875.3,286047000.7,N
1658552895.1,286046998.5,N
1658552915.9,286046998.7,N
1658552935.7,286047000.6,N
1658552955.5,286047000.7,N
1658552975.4,286047001.2,N
1658552995.2,286047000.7,N
1658553015.1,286047000.0,N
1658553016.0,286047000.0,N
1658553035.8,286047001.0,N
1658553055.6,286047000.6,N
1658553075.5,286047000.1,N
1658553095.3,286047000.6,N
1658553115.1,286047001.1,N
1658553135.9,286046999.6,N
1658553155.7,286046997.0,Y
1658553175.6,286046998.3,P
1658553195.4,286046998.4,N
1658553215.2,286046998.2,N
1658553235.1,286046998.1,N
1658553236.0,286046998.1,N
1658553255.8,286047000.5,N
1658553275.7,286047002.2,N
1658553295.5,286047000.0,N
1658553315.3,286047001.0,N
1658553335.2,286046999.6,N
1658553355.0,286046997.3,N
1658553355.9,286046997.3,N
1658553375.8,286046996.5,N
1658553395.6,286046996.5,N
1658553415.4,286046997.2,N
1658553435.3,286046998.0,N
1658553455.1,286046997.0,N
1658553475.8,286046996.8,N
1658553495.7,286046997.3,N
1658553515.5,286046996.6,N
1658553535.4,286046996.7,N
1658553555.2,286046997.3,N
1658553575.0,286046997.7,N
1658553575.9,286046997.7,N
1658553595.8,286046996.6,N
1658553615.6,286046996.5,N
1658553635.4,286046996.7,N
1658553655.3,286046996.5,N
1658553675.1,286046997.2,N
1658553695.9,286046997.0,N
1658553715.7,286046997.7,N
1658553735.5,286046995.3,Y
1658553755.4,286047000.4,P
1658553775.2,286047000.7,N
1658553795.0,286046998.3,N
1658553795.9,286046998.3,N
1658553815.8,286047001.1,N
1658553835.6,286047001.2,N
1658553855.5,286047001.2,N
1658553875.3,286046998.5,N
1658553895.1,286046998.8,N
1658553915.9,286046998.4,N
1658553935.7,286046998.5,N
1658553955.5,286046998.5,N
1658553975.4,286046998.6,N
1658553995.2,286046998.9,N
1658554015.0,286046998.8,N
1658554015.9,286046998.8,N
1658554035.8,286047011.9,Y
1658554055.6,286047000.7,P
1658554075.5,286047000.6,N
1658554095.3,286047000.5,N
1658554115.1,286047001.0,N
1658554135.9,286046999.8,N
1658554155.7,286047002.8,Y
1658554175.6,286047000.0,P
1658554195.4,286046999.7,N
1658554215.2,286047001.5,P
1658554235.1,286047002.5,Y
1658554236.0,286047002.5,P
1658554255.8,286047000.1,N
1658554275.6,286047000.5,N
1658554295.5,286046999.9,N
1658554315.3,286046999.9,N
1658554335.2,286047000.4,N
1658554355.9,286047000.4,N
1658554375.7,286047000.4,N
1658554395.6,286047000.8,N
1658554415.4,286047000.5,N
1658554435.2,286046999.7,N
1658554455.1,286047002.8,Y
1658554456.0,286047002.8,P
1658554475.8,286046999.9,N
1658554495.7,286047000.9,N
1658554515.5,286047000.5,N
1658554535.3,286047000.3,N
1658554555.1,286047000.9,N
1658554575.8,286047000.7,N
1658554595.7,286046998.9,N
1658554615.5,286046998.6,N
1658554635.4,286046996.5,Y
1658554655.2,286046999.3,P
1658554675.0,286046998.9,N
1658554675.9,286046998.9,N
1658554695.8,286046999.0,N
1658554715.6,286046998.7,N
1658554735.5,286046999.0,N
1658554755.3,286046999.0,N
1658554775.1,286046998.4,Y
1658554795.9,286047000.5,P
1658554815.7,286047000.9,N
1658554835.5,286047001.0,N
1658554855.4,286047000.8,N
1658554875.2,286047000.9,N
1658554895.1,286046998.3,N
1658554896.0,286046998.3,N
1658554915.8,286046998.4,N
1658554935.6,286046998.8,N
1658554955.5,286046999.4,N
1658554975.3,286046996.6,Y
1658554995.1,286047001.2,P
1658555015.9,286047000.7,N
1658555035.7,286047000.7,N
1658555055.6,286047002.7,Y
1658555075.4,286047000.1,P
1658555095.2,286047001.8,P
1658555115.1,286047004.1,P
1658555116.0,286047004.1,N
1658555135.8,286047003.6,N
1658555155.6,286047004.0,N
1658555175.5,286047003.2,N
1658555195.3,286047004.2,N
1658555215.2,286047004.0,N
1658555235.9,286047003.9,N
1658555255.7,286047003.6,N
1658555275.6,286047003.4,N
1658555295.4,286047005.9,Y
1658555315.2,286047002.6,P
1658555335.1,286047002.6,P
1658555336.0,286047002.6,P
1658555355.8,286047002.1,Y
1658555375.7,286046999.2,P
1658555395.5,286046996.8,N
1658555415.3,286046997.1,N
1658555435.2,286046998.0,N
1658555455.0,286046995.0,N
1658555455.9,286046995.0,N
1658555475.8,286046995.2,N
1658555495.6,286046997.2,N
1658555515.4,286046997.0,N
1658555535.3,286046995.2,N
1658555555.1,286046995.3,N
1658555556.0,286046995.3,N
1658555575.8,286046995.6,N
1658555595.7,286046994.9,N
1658555615.5,286046998.0,N
1658555635.3,286046999.6,N
1658555655.2,286046999.4,N
1658555675.0,286047001.2,N
1658555675.9,286047001.2,N
1658555695.8,286047000.3,N
1658555715.6,286046999.7,N
1658555735.4,286046999.7,N
1658555755.3,286047002.6,N
1658555775.1,286047002.4,N
1658555795.8,286047002.6,N
1658555815.7,286047002.3,N
1658555835.5,286047002.6,N
1658555855.4,286047001.9,N
1658555875.2,286047001.5,N
1658555895.0,286047002.3,N
1658555895.9,286047002.3,N
1658555915.8,286047001.6,N
1658555935.6,286047001.9,N
1658555955.4,286047002.5,N
1658555975.3,286047002.3,N
1658555995.1,286047002.1,N
